DW6449 Weather Reports


time (UTC)temp
C
wind
direction
speed
KPH
gust
KPH
rain 1hr
cm
rain 24hr
cm
rain mn
cm
humidity
%
barometer
mb
20260507023053 9 248 0.0 0.0 0.08 4.11 0.38 94 1013.5
20260507021518 9 248 0.0 0.0 0.15 4.11 0.38 94 1013.4
20260507020035 8 248 0.0 0.0 0.10 4.09 0.33 94 1013.3
20260507014609 8 248 0.0 0.0 0.08 4.06 0.33 94 1013.3
20260507013032 8 248 0.0 0.0 0.05 4.04 0.30 94 1013.2
20260507011532 8 248 0.0 0.0 0.05 3.99 0.23 94 1013.2
20260507010031 9 248 0.0 0.0 0.05 3.99 0.23 94 1013.2
20260507004543 9 248 0.0 0.0 0.05 3.99 0.23 94 1013.1
20260507003100 9 248 0.0 0.0 0.08 3.99 0.23 94 1013.1
20260507001507 9 248 0.0 0.0 0.10 3.94 0.20 94 1013.0
20260507000039 9 248 0.0 0.0 0.13 3.91 0.18 94 1012.9
20260506234549 9 248 0.0 0.0 0.15 3.91 0.18 94 1012.9
20260506233003 8 248 0.0 0.0 0.15 3.91 0.15 93 1013.0
20260506231519 9 248 0.0 0.0 0.10 3.84 0.10 93 1012.9
20260506230028 8 248 0.0 0.0 0.05 3.81 0.05 93 1012.9
20260506224553 8 248 0.0 0.0 0.05 3.76 0.03 93 1012.8
20260506223011 9 248 0.0 0.0 0.05 3.76 0.03 93 1012.7
20260506221523 9 248 0.0 0.0 0.03 3.73 0.00 93 1012.6
20260506220108 9 248 0.0 0.0 0.03 3.73 0.00 93 1012.5
20260506214511 8 248 0.0 0.0 0.00 3.71 3.71 93 1012.4
20260506213023 8 248 0.0 0.0 0.00 3.71 3.71 93 1012.4
20260506211548 8 248 0.0 0.0 0.00 3.71 3.71 93 1012.4
20260506210005 8 248 0.0 0.0 0.03 3.71 3.71 93 1012.3
20260506204528 8 248 0.0 0.0 0.05 3.71 3.71 93 1012.3
20260506203121 8 248 0.0 0.0 0.05 3.71 3.71 93 1012.1
20260506201600 8 248 0.0 0.0 0.08 3.71 3.71 93 1012.1
20260506200012 8 248 0.0 0.0 0.10 3.71 3.71 93 1012.0
20260506194526 8 248 0.0 0.0 0.13 3.68 3.68 92 1011.8
20260506193036 8 248 0.0 0.0 0.13 3.66 3.66 93 1011.7
20260506191559 8 248 0.0 0.0 0.10 3.63 3.63 93 1011.5
20260506190025 9 248 0.0 0.0 0.08 3.61 3.61 92 1011.5
20260506184541 9 248 0.0 0.0 0.05 3.56 3.56 92 1011.3
20260506183049 9 248 0.0 1.6 0.05 3.53 3.53 92 1011.2
20260506181502 9 248 0.0 1.6 0.05 3.53 3.53 92 1011.0
20260506180025 9 248 0.0 3.2 0.08 3.53 3.53 92 1010.9
20260506174604 9 240 0.0 0.0 0.15 3.51 3.51 92 1010.8
20260506173100 9 241 0.0 0.0 0.23 3.51 3.51 92 1010.6
20260506171516 9 240 0.0 1.6 0.33 3.48 3.48 91 1010.4
20260506170022 9 240 0.0 4.8 0.33 3.43 3.43 91 1010.5
20260506164549 10 221 0.0 3.2 0.28 3.33 3.33 91 1010.4
20260506163006 10 159 0.0 11.3 0.23 3.25 3.25 90 1010.3
20260506161538 11 84 0.0 0.0 0.15 3.15 3.15 91 1010.2
20260506160110 11 248 0.0 0.0 0.15 3.10 3.10 91 1009.8
20260506154527 11 249 0.0 0.0 0.13 3.05 3.05 91 1009.7
20260506153040 11 249 0.0 0.0 0.13 3.02 3.02 91 1009.6
20260506151514 11 222 0.0 0.0 0.13 2.97 2.97 90 1009.5
20260506150052 11 253 0.0 0.0 0.10 2.97 2.97 90 1009.5
20260506144511 11 263 0.0 0.0 0.08 2.92 2.92 90 1009.6
20260506143015 11 190 0.0 0.0 0.05 2.87 2.87 89 1009.5
20260506141532 11 229 0.0 0.0 0.00 2.84 2.84 89 1009.6
20260506134525 12 277 0.0 11.3 0.00 2.84 2.84 89 1009.7
20260506133042 12 255 0.0 11.3 0.00 2.84 2.84 88 1009.6
20260506131543 12 264 0.0 4.8 0.03 2.84 2.84 90 1009.7
20260506124510 11 259 1.6 11.3 0.23 2.84 2.84 91 1009.4
20260506123025 11 270 1.6 12.9 0.33 2.84 2.84 91 1009.3
20260506121545 11 248 0.0 6.4 0.41 2.84 2.84 91 1009.4
20260506120051 11 226 0.0 11.3 0.28 2.72 2.69 91 1009.3
20260506114501 11 243 0.0 0.0 0.23 2.79 2.62 92 1009.3
20260506113025 11 219 0.0 6.4 0.20 2.69 2.51 91 1009.3
20260506111542 11 237 0.0 0.0 0.18 2.62 2.44 92 1009.3
20260506110009 11 272 0.0 3.2 0.33 2.59 2.41 92 1009.3
20260506104531 11 150 0.0 0.0 0.66 2.57 2.39 93 1009.2
20260506103047 10 151 0.0 0.0 0.91 2.49 2.31 93 1009.2
20260506101637 10 151 0.0 0.0 1.22 2.44 2.26 92 1009.1
20260506100011 10 151 0.0 0.0 1.63 2.29 2.11 92 1009.0
20260506094536 10 279 0.0 6.4 1.40 1.91 1.73 92 1008.6
20260506093002 11 313 0.0 4.8 1.22 1.55 1.37 92 1008.4
20260506091511 11 214 0.0 0.0 0.94 1.19 1.02 92 1008.2
20260506090027 11 219 0.0 0.0 0.43 0.64 0.46 92 1008.0
20260506084625 11 259 0.0 0.0 0.28 0.48 0.30 91 1007.8
20260506083032 11 263 0.0 1.6 0.13 0.33 0.15 91 1007.7
20260506081555 11 170 0.0 0.0 0.05 0.23 0.05 90 1007.6
20260506073052 11 238 0.0 1.6 0.03 0.20 0.03 90 1007.0
20260506071505 11 238 0.0 1.6 0.00 0.18 0.00 91 1007.0
20260506061557 11 238 0.0 0.0 0.00 0.18 0.00 94 1007.0
20260506044542 9 236 0.0 0.0 0.00 0.33 0.00 94 1007.1
20260506043053 9 238 0.0 0.0 0.00 0.33 0.00 94 1007.1
20260506041606 9 238 0.0 3.2 0.00 0.33 0.00 94 1007.1
20260506040013 9 238 0.0 0.0 0.00 0.33 0.00 94 1007.0
20260506034533 9 238 0.0 0.0 0.00 0.48 0.00 93 1007.1
20260506033040 9 238 0.0 0.0 0.00 0.48 0.00 93 1007.1
20260506031548 9 238 0.0 0.0 0.00 0.48 0.00 93 1007.3
20260506030105 9 238 0.0 0.0 0.00 0.48 0.00 94 1007.5
20260506024511 10 238 0.0 0.0 0.00 0.64 0.00 93 1007.5